EW9339 Weather Reports


time (UTC)temp
C
wind
direction
speed
KPH
gust
KPH
rain 1hr
cm
rain 24hr
cm
rain mn
cm
humidity
%
barometer
mb
20260503050046 -17 0.0 0.0 0.00 0.00 0.23 1010.0
20260503044543 -17 0.0 0.0 0.00 0.00 0.23 1010.0
20260503043035 -17 0.0 0.0 0.00 0.00 0.23 1010.1
20260503041552 12 309 3.2 0.0 0.00 0.00 0.23 93 1010.2
20260503040056 13 38 1.6 0.0 0.00 0.00 0.23 93 1010.1
20260503034512 13 93 0.0 0.0 0.00 0.00 0.23 93 1010.2
20260503033026 13 178 3.2 0.0 0.00 0.00 0.23 93 1010.4
20260503031504 13 102 1.6 0.0 0.00 0.00 0.23 93 1010.3
20260503030014 13 115 3.2 0.0 0.00 0.00 0.23 93 1010.3
20260503024502 12 93 3.2 0.0 0.00 0.00 0.23 93 1010.4
20260503023041 12 59 1.6 0.0 0.00 0.00 0.23 93 1010.5
20260503021545 13 215 1.6 0.0 0.00 0.00 0.23 93 1010.5
20260503020043 13 9 3.2 0.0 0.00 0.00 0.23 93 1010.6
20260503014542 13 30 3.2 0.0 0.00 0.00 0.23 93 1010.8
20260503013030 13 17 3.2 0.0 0.00 0.00 0.18 92 1011.0
20260503011507 13 34 1.6 0.0 0.00 0.00 0.18 92 1011.1
20260503010039 13 298 1.6 0.0 0.00 0.00 0.15 92 1011.2
20260503004547 13 93 3.2 0.0 0.00 0.00 0.13 92 1011.3
20260503003039 12 9 3.2 0.0 0.00 0.00 0.13 92 1011.3
20260503001554 12 51 1.6 0.0 0.00 0.00 0.13 92 1011.4
20260503000042 13 61 1.6 0.0 0.00 0.00 0.13 92 1011.6
20260502234516 13 26 3.2 0.0 0.00 0.00 0.13 92 1011.6
20260502233014 13 44 3.2 0.0 0.00 0.00 0.13 92 1011.8
20260502231546 13 22 3.2 0.0 0.00 0.00 0.13 92 1011.7
20260502230051 -17 0.0 0.0 0.00 0.00 0.00 1011.8
20260502224527 -17 0.0 0.0 0.00 0.00 0.00 1011.9
20260502223055 -17 0.0 0.0 0.00 0.00 0.00 1011.8
20260502221521 -17 0.0 0.0 0.00 0.00 0.00 1011.9
20260502220007 -17 0.0 0.0 0.00 0.00 0.86 1011.9
20260502214610 -17 0.0 0.0 0.00 0.00 0.86 1012.0
20260502213039 -17 0.0 0.0 0.00 0.00 0.86 1012.0
20260502211510 -17 0.0 0.0 0.00 0.00 0.86 1012.0
20260502210104 -17 0.0 0.0 0.00 0.00 0.86 1011.9
20260502204523 -17 0.0 0.0 0.00 0.00 0.86 1011.9
20260502203054 -17 0.0 0.0 0.00 0.00 0.86 1011.9
20260502201502 -17 0.0 0.0 0.00 0.00 0.86 1011.7
20260502200130 14 236 4.8 0.0 0.00 0.00 0.86 92 1011.6
20260502194510 14 269 3.2 0.0 0.00 0.00 0.86 92 1011.6
20260502193050 14 9 3.2 0.0 0.00 0.00 0.86 92 1011.4
20260502191504 13 19 3.2 0.0 0.00 0.00 0.86 92 1011.5
20260502190014 13 309 3.2 0.0 0.00 0.00 0.86 92 1011.4
20260502184551 13 265 6.4 0.0 0.00 0.00 0.84 92 1011.4
20260502183034 13 232 6.4 0.0 0.00 0.00 0.81 91 1011.4
20260502181512 13 9 6.4 0.0 0.00 0.00 0.79 91 1011.5
20260502163102 13 124 6.4 0.0 0.00 0.00 0.66 90 1011.5
20260502161556 14 115 1.6 0.0 0.00 0.00 0.61 90 1011.7
20260502151551 15 122 3.2 0.0 0.00 0.00 0.56 90 1011.9
20260502123029 15 339 12.9 0.0 0.00 0.00 0.13 84 1012.5
20260502121551 15 347 12.9 0.0 0.00 0.00 0.13 84 1012.6
20260502114507 15 330 8.0 0.0 0.00 0.00 0.13 83 1012.8
20260502113034 15 337 6.4 0.0 0.00 0.00 0.13 82 1012.9
20260502111604 15 338 6.4 0.0 0.00 0.00 0.13 81 1012.9
20260502110056 15 346 8.0 0.0 0.00 0.00 0.13 81 1013.0
20260502104519 15 336 11.3 0.0 0.00 0.00 0.13 81 1013.1
20260502103108 16 337 8.0 0.0 0.00 0.00 0.13 81 1013.1
20260502101502 16 232 3.2 0.0 0.00 0.00 0.13 83 1013.2
20260502091526 14 157 3.2 0.0 0.00 0.00 0.13 86 1013.5
20260502090114 14 221 3.2 0.0 0.00 0.00 0.10 85 1013.8
20260502071525 13 51 3.2 0.0 0.00 0.00 0.00 87 1013.4
20260502070010 13 80 3.2 0.0 0.00 0.00 0.00 87 1013.5
20260502064626 13 115 3.2 0.0 0.00 0.00 0.00 87 1013.5
20260502063035 13 57 3.2 0.0 0.00 0.00 0.00 87 1013.6
20260502061602 13 212 1.6 0.0 0.00 0.00 0.00 87 1013.6
20260502060053 13 131 3.2 0.0 0.00 0.00 0.00 87 1013.5
20260502054545 13 76 1.6 0.0 0.00 0.00 0.00 87 1013.4
20260502053036 13 178 1.6 0.0 0.00 0.00 0.00 87 1013.4
20260502051543 13 93 1.6 0.0 0.00 0.00 0.00 87 1013.3